Nassau, Bahamas

7:03 PM EDT on July 22, 2017 (GMT -0400)
Nassau International

Weather History for MYNN - August, 2012

Change the Weather History Date:

Tuesday, August 28, 2012

  Actual Average Record
Temperature  
Mean Temperature 84 °F -  
Max Temperature 89 °F 88 °F 93 °F (2005)
Min Temperature 80 °F 74 °F 32 °F (2002)
Cooling Degree Days 20    
Growing Degree Days 34 (Base 50)    
Moisture  
Dew Point 77 °F    
Average Humidity 76    
Maximum Humidity 89    
Minimum Humidity 63    
Precipitation  
Precipitation 0.00 in 0.23 in - ()
Sea Level Pressure  
Sea Level Pressure 30.02 in    
Wind  
Wind Speed 8 mph ()    
Max Wind Speed 14 mph    
Max Gust Speed -    
Visibility 6.8 miles    
Events      
Averages and records for this station are not official NWS values.
T = Trace of Precipitation, MM = Missing Value Source: Averaged Metar Reports

Daily Weather History Graph

Daily Weather History Graph

Search for Another Location

Airport or City:

Trip Planner

Search our weather history database for the weather conditions in past years. The results will help you decide how hot, cold, wet, or windy it might be!

Date:

Astronomy

Aug. 28, 2012 Rise Set
Actual Time 6:49 AM EDT 7:32 PM EDT
Civil Twilight 6:26 AM EDT 7:55 PM EDT
Nautical Twilight 5:58 AM EDT 8:22 PM EDT
Astronomical Twilight 5:30 AM EDT 8:50 PM EDT
Moon 5:23 PM EDT (8/28) 3:49 AM EDT (8/28)
Length of Visible Light 13h 29m
Length of Day
12h 42m
Waxing Gibbous, 90% of the Moon is Illuminated
Aug 28
Waxing Gibbous
Aug 31
Full
Sep 8
Last Quarter
Sep 15
New
Sep 22
First Quarter

Hourly Weather History & Observations

Time (EDT) Temp. Heat Index Dew Point Humidity Pressure Visibility Wind Dir Wind Speed Gust Speed Precip Events Conditions
1:00 AM 82.4 °F 90.9 °F 77.0 °F 84% 30.01 in 6.2 mi SSE 11.5 mph - N/A   Mostly Cloudy
2:00 AM 83 °F - 79 °F 83% 30.00 in 8 mi SSE 11.5 mph - -   Partly Cloudy
5:00 AM 82 °F - 78 °F 85% 29.98 in 8 mi SSE 4.6 mph - -   Partly Cloudy
5:00 AM 82.4 °F 92.4 °F 78.8 °F 89% 29.97 in 6.2 mi SSE 4.6 mph - N/A   Mostly Cloudy
6:00 AM 82.4 °F 90.9 °F 77.0 °F 84% 29.97 in 6.2 mi SSE 10.4 mph - N/A   Mostly Cloudy
7:00 AM 82.4 °F 89.5 °F 75.2 °F 79% 29.97 in 6.2 mi SE 5.8 mph - N/A   Mostly Cloudy
8:00 AM 83 °F - 76 °F 75% 30.00 in 8 mi SSE 5.8 mph - -   Partly Cloudy
8:00 AM 84.2 °F 94.1 °F 77.0 °F 79% 30.00 in 6.2 mi SSE 5.8 mph - N/A   Mostly Cloudy
9:00 AM 84.2 °F 92.3 °F 75.2 °F 74% 30.03 in 6.2 mi South 6.9 mph - N/A   Mostly Cloudy
10:00 AM 86.0 °F 95.1 °F 75.2 °F 70% 30.05 in 6.2 mi South 5.8 mph - N/A   Mostly Cloudy
10:05 AM - - - N/A% - - North - - N/A   Unknown
11:00 AM 86 °F - 76 °F 65% 30.06 in 9 mi SSE 11.5 mph - -   Mostly Cloudy
11:00 AM 86.0 °F 95.1 °F 75.2 °F 70% 30.06 in 6.2 mi SSE 11.5 mph - N/A   Mostly Cloudy
12:00 PM - - - N/A% 30.06 in 6.2 mi SSE 13.8 mph - N/A   Mostly Cloudy
1:00 PM 87.8 °F 97.6 °F 75.2 °F 66% 30.06 in 6.2 mi South 9.2 mph - N/A   Mostly Cloudy
2:00 PM 87 °F - 76 °F 63% 30.04 in 9 mi South 11.5 mph - -   Partly Cloudy
2:00 PM 87.8 °F 99.7 °F 77.0 °F 70% 30.03 in 6.2 mi South 11.5 mph - N/A   Mostly Cloudy
3:00 PM 87.8 °F 102.5 °F 78.8 °F 75% 30.02 in 6.2 mi SSE 11.5 mph - N/A   Scattered Clouds
4:00 PM 87.8 °F 102.5 °F 78.8 °F 75% 30.01 in 6.2 mi SSE 5.8 mph - N/A   Scattered Clouds
5:00 PM - - - %  in 8 mi SSE 1.2 mph - -  
6:00 PM 86.0 °F 96.9 °F 77.0 °F 74% 30.00 in 6.2 mi SE 11.5 mph - N/A   Mostly Cloudy
7:00 PM 84.2 °F 94.1 °F 77.0 °F 79% 30.01 in 6.2 mi SSE 11.5 mph - N/A   Mostly Cloudy
8:00 PM 84 °F - 76 °F 71% 30.01 in 8 mi ESE 4.6 mph - -   Scattered Clouds
8:00 PM 84.2 °F 92.3 °F 75.2 °F 74% 30.01 in 6.2 mi ESE 4.6 mph - N/A   Mostly Cloudy
10:00 PM 82.4 °F 89.5 °F 75.2 °F 79% 30.05 in 6.2 mi SE 9.2 mph - N/A   Mostly Cloudy
11:00 PM 84.2 °F 94.1 °F 77.0 °F 79% 30.06 in 6.2 mi SE 5.8 mph - N/A   Mostly Cloudy